Temperature
27 27 26 25 24 24 24 25 25 27 27 26 26 26 26 24 23 23 23 23 23 22 21 19 18 18 17 16 16 16 16 15 14 14 14 14 14 14 14 14 14 14 14 14
27 27 27 26 24 23 23 25 27 28 27 26 26 26 27 25 24 24 23 23 23 22 21 20 19 18 17 16 16 16 15 15 14 14 13 13 14 14 14 13 14 14 14 14
27 27 28 27 26 25 26 27 27 26 27 27 26 25 26 26 25 24 23 23 23 22 21 20 19 18 17 17 16 15 15 14 14 13 13 13 13 13 13 13 13 13 13 13
26 27 28 28 28 27 27 27 26 26 25 26 26 24 25 25 24 24 23 23 22 21 20 19 18 17 17 16 15 15 15 14 13 13 13 13 13 13 13 13 13 13 13 13
25 27 27 27 27 27 26 26 26 26 25 25 26 25 25 25 24 24 24 23 22 21 20 19 18 17 16 16 15 15 14 14 13 13 13 13 13 13 13 13 13 13 13 13
26 28 28 28 27 27 26 26 26 26 25 24 26 26 25 25 25 24 24 23 22 21 20 19 18 17 16 16 15 15 14 14 13 13 13 13 13 13 13 13 13 13 13 13
26 27 27 27 26 26 26 25 24 24 24 25 26 26 25 24 25 24 24 23 22 21 20 19 18 17 17 16 15 15 15 14 14 13 13 13 13 13 13 12 12 12 13 12
26 25 26 26 26 26 26 26 24 24 25 26 26 26 24 25 24 24 23 23 22 21 20 19 18 17 17 16 16 15 15 14 14 14 13 13 13 13 12 12 12 12 12 12
26 25 26 26 27 26 26 26 27 25 26 26 26 26 24 25 25 24 23 22 22 21 20 19 18 18 17 16 16 15 15 15 14 14 14 13 13 12 12 12 12 12 12 12
26 25 25 25 25 25 25 25 25 25 24 25 26 26 24 24 24 24 24 23 22 21 20 19 18 18 17 17 16 16 15 15 15 14 14 13 13 13 12 12 12 12 12 12
27 26 25 25 24 25 25 25 25 25 25 24 24 24 25 24 24 24 24 23 22 21 20 20 19 18 17 17 17 16 16 16 15 14 14 14 13 13 13 13 12 12 12 12
27 27 26 25 26 26 26 25 25 24 25 25 24 23 25 24 24 24 23 23 22 21 20 19 19 18 18 17 17 17 16 16 15 15 14 14 14 13 13 13 13 12 12 12
27 26 26 25 24 24 25 25 25 25 24 24 24 23 24 25 24 24 23 23 22 21 20 19 19 18 18 18 17 17 17 16 16 15 14 14 14 13 13 13 13 12 12 12
25 26 25 25 25 25 25 25 24 24 23 24 25 25 25 25 24 24 23 23 22 21 20 20 19 18 18 18 17 18 17 17 16 15 15 14 14 13 13 13 12 12 12 11
26 25 26 27 27 26 26 25 24 24 24 24 25 25 25 25 24 24 23 23 22 22 21 20 19 19 18 18 18 18 17 17 16 15 15 14 14 13 13 13 12 12 12 11
25 25 26 26 27 26 26 26 25 25 25 25 25 25 26 25 25 24 24 23 23 22 22 21 20 19 19 19 18 18 18 17 16 16 15 15 14 14 13 13 12 12 12 11
25 25 25 25 27 26 25 26 26 25 26 25 25 25 25 25 24 23 23 23 23 22 22 21 20 20 19 19 19 19 18 18 17 16 16 15 15 14 14 13 13 12 12 12
26 25 25 25 26 24 27 28 28 26 26 26 26 26 25 25 23 23 22 22 22 22 21 21 20 20 19 19 19 19 18 18 17 17 17 16 15 15 14 13 13 13 12 12
26 25 25 25 25 26 26 27 27 26 25 26 26 26 25 25 24 23 22 22 21 21 21 20 20 20 20 20 19 19 19 19 18 18 17 16 16 15 14 14 13 13 13 12
25 25 24 24 24 24 27 27 27 26 25 27 26 26 25 25 23 22 22 21 21 20 20 20 19 19 20 19 19 19 19 19 18 18 17 17 16 15 15 14 14 14 13 13
23 23 23 23 24 26 26 26 26 24 25 27 26 26 25 25 23 22 21 20 20 20 19 19 19 19 19 19 18 18 18 18 18 18 17 17 16 15 15 15 15 14 14 13
23 23 23 23 23 24 25 25 25 25 26 26 26 25 25 24 22 21 20 20 19 19 19 18 18 18 18 18 18 18 18 18 18 17 17 16 16 16 15 15 15 14 14 13
26 25 25 25 25 25 25 25 24 25 26 25 25 24 23 23 22 21 20 19 19 18 18 18 18 18 18 18 18 17 17 17 17 17 16 16 16 15 15 15 15 15 14 14
27 27 26 26 25 25 25 24 23 23 24 24 23 23 22 22 21 20 19 18 18 18 18 17 17 17 17 17 17 17 17 16 16 16 16 15 15 15 15 15 15 15 15 14
26 27 26 25 26 25 24 23 22 22 22 22 22 22 21 21 20 19 18 17 17 17 16 16 16 16 16 16 16 16 16 16 15 15 15 14 15 15 15 15 15 15 15 15
27 26 25 24 26 26 24 23 22 21 21 21 20 20 20 20 19 18 17 16 16 16 15 15 15 15 14 14 15 15 15 14 14 14 13 13 14 14 14 14 15 15 15 15
Wind_Speed
14 13 12 7 3 4 7 7 9 2 6 1 7 7 5 12 9 7 7 6 4 2 5 8 3 2 4 4 5 5 5 6 5 4 5 5 5 5 4 4 6 7 8 8
13 16 10 7 8 1 10 13 9 2 5 2 8 8 5 10 9 6 5 4 3 4 4 6 3 5 4 3 4 6 7 6 5 4 5 5 5 5 4 4 4 7 7 7
15 8 8 7 8 10 11 7 7 8 8 7 7 8 7 7 6 6 4 3 4 1 2 4 4 5 3 4 6 7 7 6 7 7 4 6 5 4 5 5 4 4 5 6
6 3 5 8 7 5 6 6 5 7 8 7 3 3 8 9 7 7 7 6 4 2 4 3 3 4 4 6 6 7 7 7 6 6 4 6 5 5 5 4 4 5 4 4
5 8 9 7 1 2 4 4 5 7 8 10 7 6 6 8 6 6 5 4 4 4 4 4 3 3 3 4 4 3 4 5 5 5 6 4 4 4 4 4 6 6 4 3
6 6 3 3 7 3 1 5 8 8 7 9 6 4 5 5 5 5 5 5 5 4 5 5 5 3 1 2 2 2 2 2 2 4 6 4 4 6 6 5 6 5 4 4
8 7 4 4 3 4 5 7 5 7 7 4 7 2 4 10 8 5 4 3 6 6 4 5 4 3 2 1 2 3 3 3 3 3 5 6 5 5 6 5 5 5 4 4
11 11 9 5 4 3 5 6 6 6 3 3 5 3 8 10 8 5 4 3 4 6 5 4 4 3 2 1 1 1 3 4 2 2 4 5 5 4 4 5 5 5 4 3
5 5 8 5 1 3 5 5 3 6 9 5 6 8 8 7 8 6 4 3 3 5 6 5 4 3 2 1 1 1 3 4 2 2 3 3 4 4 5 6 5 5 6 5
6 5 7 5 4 3 5 8 4 4 5 5 3 5 6 7 4 4 4 5 5 4 5 6 6 5 3 2 2 3 4 3 1 2 3 3 2 3 4 4 3 4 6 6
7 5 9 9 8 9 6 5 4 5 5 3 3 5 6 7 5 3 2 2 3 4 5 4 4 4 5 5 4 5 4 2 1 1 2 3 2 2 4 4 2 4 5 6
4 6 6 10 6 2 3 5 4 4 5 2 2 4 6 6 4 1 1 1 3 4 4 4 4 4 4 3 3 3 2 1 2 1 2 4 3 3 4 4 4 5 6 6
2 5 4 7 5 5 5 7 6 5 4 5 4 5 5 6 5 4 2 1 3 5 5 6 5 4 4 3 3 4 4 2 2 2 2 5 4 3 3 5 5 6 6 6
4 8 11 6 4 5 6 8 7 7 5 6 2 4 5 4 5 4 3 3 3 6 6 6 6 6 5 4 4 4 2 3 1 1 2 3 4 4 3 4 4 5 6 6
4 10 14 10 3 2 4 8 10 10 10 8 5 5 4 5 5 3 3 3 3 4 6 6 6 6 6 6 4 4 1 3 2 2 3 2 2 3 2 3 4 4 5 7
7 9 12 10 6 6 9 10 11 12 10 9 7 5 3 4 2 1 2 3 3 3 4 5 6 6 6 6 6 6 5 5 4 3 4 3 1 2 2 4 3 4 5 6
10 10 11 11 10 8 10 15 15 12 10 7 7 1 6 2 3 4 5 3 1 1 3 4 3 3 3 4 4 3 3 3 3 4 3 3 2 0 2 4 4 5 6 5
10 10 8 10 7 8 3 1 10 12 10 7 5 1 2 2 4 4 2 1 2 1 2 3 3 4 5 5 5 4 5 5 6 5 4 3 4 4 4 4 5 6 4 4
8 7 7 8 10 9 5 5 7 8 9 10 8 5 4 3 4 6 6 4 3 3 3 2 1 2 4 4 3 3 4 5 4 3 3 3 3 4 4 5 5 5 4 4
7 8 8 7 7 8 3 12 9 6 6 10 10 8 6 5 3 5 7 5 4 4 3 2 1 2 2 1 2 3 5 4 2 2 3 3 3 3 5 6 6 5 4 5
9 8 9 10 8 5 9 12 10 6 4 11 10 7 6 3 6 7 7 6 5 4 2 2 1 1 1 2 3 4 5 4 2 1 1 1 3 5 6 6 6 5 5 6
11 7 9 8 9 6 11 9 7 3 6 8 8 6 5 8 9 8 7 6 4 4 3 1 1 1 1 1 2 4 4 5 4 1 2 4 5 6 7 7 7 7 6 7
11 9 5 6 3 6 7 5 4 3 4 6 7 7 6 6 7 8 7 6 5 4 3 2 1 2 2 1 1 3 5 5 5 5 5 6 7 8 8 8 7 7 7 6
9 11 7 5 6 10 7 6 6 3 1 6 7 6 6 6 8 8 7 6 5 5 5 4 4 4 4 5 5 5 5 6 7 7 7 6 6 7 7 6 7 6 6 6
7 5 8 9 7 5 8 9 9 7 6 6 6 5 5 7 8 8 8 6 5 5 5 5 5 5 6 7 8 8 8 8 8 8 7 7 7 7 6 6 5 7 7 7
13 8 8 7 8 9 11 13 12 11 10 9 8 7 6 7 8 9 8 6 6 6 6 6 7 7 7 8 9 10 10 9 9 8 8 7 7 7 7 7 7 9 10 12
Wind_Direction
204 218 224 216 206 336 317 269 266 248 133 271 291 286 202 168 181 212 234 224 226 132 94 92 72 63 45 40 342 339 32 24 17 12 342 347 351 340 357 1 4 352 351 347
201 222 214 141 107 117 265 272 286 39 99 326 297 286 240 169 181 205 240 250 218 153 121 114 97 61 29 18 351 3 32 22 20 9 355 344 352 338 6 1 3 359 360 358
215 222 201 177 178 215 249 283 355 346 328 280 268 263 205 156 172 183 208 269 294 111 80 64 65 70 5 23 23 6 24 23 25 1 15 348 341 346 2 354 357 344 1 16
201 188 216 225 223 242 299 48 358 318 298 285 226 292 160 159 169 187 192 201 219 142 117 91 59 53 22 31 28 6 19 16 20 359 1 340 349 353 339 338 346 345 13 23
168 196 214 231 90 11 27 18 305 286 280 282 246 246 147 147 175 175 162 171 164 143 133 126 105 62 36 31 32 10 14 11 17 350 324 327 356 325 323 339 354 347 346 12
163 202 220 99 83 45 35 275 258 247 256 258 228 242 134 142 108 96 113 136 140 143 139 136 127 125 94 59 40 5 1 5 3 337 324 336 343 335 338 355 355 343 342 1
173 170 119 117 160 184 232 258 259 223 217 209 120 191 95 97 85 74 71 93 126 131 152 155 155 157 151 112 51 351 5 352 357 351 335 343 357 345 349 2 341 333 342 355
197 183 171 185 246 280 244 271 284 302 290 124 158 179 103 106 108 111 124 122 132 151 159 155 156 157 181 179 110 351 334 305 324 343 349 340 347 1 355 342 333 337 338 342
278 142 126 137 183 293 270 245 303 315 295 282 171 128 124 135 143 139 139 146 184 165 157 171 174 177 194 186 135 278 294 300 334 352 334 333 2 360 347 332 343 344 331 333
261 155 165 159 187 213 292 332 309 265 302 299 154 145 131 134 126 139 157 167 173 173 174 175 171 173 188 206 210 251 252 262 348 356 335 350 338 335 317 303 333 327 312 310
272 218 167 175 207 204 188 217 242 275 275 287 338 75 81 92 76 35 33 110 142 165 167 167 168 180 189 200 214 232 238 203 120 341 328 307 290 291 293 293 322 313 315 334
247 291 209 180 161 116 218 255 262 269 301 290 277 108 102 105 114 130 334 89 137 135 151 164 177 194 209 209 235 246 269 223 151 129 319 300 299 295 314 336 351 339 335 335
312 273 255 150 162 174 212 222 242 275 293 276 273 123 160 155 153 146 149 165 155 156 173 180 183 196 224 226 244 245 216 186 137 154 273 295 311 328 341 336 1 340 334 333
336 271 274 294 38 146 196 197 210 238 250 271 262 119 166 141 117 113 126 160 182 174 176 185 179 193 208 220 243 268 177 116 96 168 252 292 326 338 349 349 338 328 326 322
243 263 273 274 195 235 237 200 199 225 247 271 338 18 13 65 86 114 155 171 179 187 174 181 184 199 199 203 219 259 164 149 185 213 244 253 289 306 322 315 312 322 326 327
235 266 274 274 244 235 251 238 214 216 238 261 289 295 83 76 107 138 155 139 170 190 180 177 187 203 208 200 200 220 207 182 184 204 222 208 217 318 341 314 319 322 313 303
220 241 264 270 242 221 249 232 221 216 216 230 248 184 90 60 50 38 36 36 339 111 135 159 188 205 223 230 209 215 144 132 193 221 213 177 167 247 295 301 305 292 284 288
230 234 250 264 238 227 253 120 192 202 208 208 232 146 120 121 123 137 143 104 342 53 118 151 176 196 209 230 218 195 174 202 214 211 187 171 178 205 236 258 270 274 275 293
258 249 249 254 259 255 203 171 177 183 206 200 204 199 169 155 169 151 119 94 64 54 70 101 154 236 221 232 247 240 224 220 212 180 163 195 207 211 223 247 264 271 272 276
244 268 254 255 257 264 243 147 151 175 227 185 182 179 169 189 212 125 107 97 84 69 52 49 44 287 313 342 342 320 304 298 275 188 172 192 210 232 238 243 252 262 268 266
202 227 239 255 263 264 108 122 140 194 232 157 163 160 168 155 92 110 106 94 87 89 68 36 316 317 3 349 319 289 287 300 324 100 129 228 242 245 244 241 243 254 262 265
183 206 214 220 238 238 139 150 175 128 102 126 139 139 128 104 106 111 104 94 87 94 89 45 326 316 353 330 303 301 314 333 349 346 244 247 250 254 260 240 234 238 251 262
196 210 211 209 189 101 145 146 101 81 146 133 130 120 121 128 127 119 111 101 85 76 73 47 4 355 360 11 359 326 333 338 328 304 270 253 249 245 242 240 236 234 236 242
226 210 237 250 164 173 184 144 146 172 152 112 118 130 152 146 130 123 115 105 90 70 60 44 37 32 22 24 40 25 355 339 326 311 298 286 276 269 256 241 231 231 234 239
273 213 213 238 246 181 177 185 178 176 172 148 146 151 148 132 125 120 111 99 89 78 67 56 47 37 29 27 29 21 5 352 336 322 316 312 303 296 289 276 251 241 235 231
265 250 211 220 233 218 197 191 184 178 180 170 160 146 134 131 127 116 106 99 90 79 68 58 48 40 37 36 34 22 6 358 348 339 334 331 326 319 312 303 295 267 256 256
Height
1502 1503 1505 1507 1510 1515 1517 1516 1515 1508 1507 1512 1513 1512 1511 1516 1520 1523 1525 1526 1528 1529 1531 1532 1533 1533 1533 1532 1530 1529 1527 1524 1522 1520 1518 1516 1514 1512 1511 1509 1507 1505 1504 1503
1500 1502 1499 1502 1506 1515 1517 1514 1508 1504 1506 1510 1511 1509 1507 1511 1516 1519 1522 1523 1525 1527 1530 1530 1532 1532 1532 1531 1530 1528 1526 1524 1522 1520 1518 1516 1515 1513 1511 1509 1507 1505 1503 1502
1497 1497 1494 1498 1506 1510 1509 1507 1507 1510 1506 1506 1511 1512 1507 1508 1513 1517 1520 1523 1524 1525 1528 1530 1531 1531 1531 1530 1529 1528 1526 1524 1521 1520 1518 1516 1514 1512 1510 1509 1507 1505 1503 1501
1496 1496 1496 1498 1499 1502 1507 1505 1508 1510 1515 1512 1509 1522 1510 1507 1512 1515 1518 1520 1523 1524 1527 1529 1530 1530 1530 1529 1528 1527 1525 1523 1521 1519 1517 1515 1514 1512 1511 1509 1507 1506 1504 1502
1500 1496 1497 1499 1499 1502 1506 1506 1508 1510 1513 1515 1508 1516 1510 1506 1511 1512 1514 1518 1520 1523 1525 1527 1528 1529 1529 1528 1527 1526 1524 1523 1521 1519 1517 1516 1514 1512 1511 1509 1508 1506 1504 1502
1497 1495 1495 1497 1501 1504 1506 1508 1507 1508 1512 1521 1505 1512 1514 1507 1509 1510 1513 1516 1519 1522 1524 1526 1527 1527 1528 1527 1526 1525 1524 1522 1520 1519 1517 1516 1514 1512 1511 1509 1507 1505 1504 1502
1500 1497 1499 1500 1503 1506 1507 1514 1522 1523 1526 1515 1501 1510 1511 1507 1507 1510 1513 1515 1518 1520 1523 1524 1525 1526 1526 1526 1525 1524 1523 1522 1520 1518 1517 1515 1514 1512 1510 1508 1507 1505 1503 1501
1501 1505 1499 1500 1502 1505 1504 1509 1523 1529 1518 1510 1505 1508 1509 1504 1508 1511 1513 1515 1517 1519 1521 1523 1524 1525 1525 1525 1524 1523 1522 1521 1520 1518 1516 1515 1513 1512 1510 1508 1506 1505 1503 1501
1500 1503 1498 1500 1502 1504 1506 1505 1502 1514 1509 1511 1503 1501 1506 1503 1506 1510 1512 1514 1516 1518 1519 1521 1522 1523 1524 1524 1523 1523 1521 1520 1519 1518 1516 1514 1513 1511 1509 1507 1506 1504 1502 1500
1494 1506 1502 1503 1504 1506 1506 1507 1508 1515 1520 1519 1506 1503 1508 1506 1506 1507 1509 1511 1514 1516 1517 1519 1520 1521 1522 1522 1522 1521 1520 1519 1518 1517 1515 1514 1512 1510 1508 1507 1505 1503 1501 1499
1489 1497 1503 1504 1506 1503 1509 1510 1509 1510 1510 1522 1523 1518 1500 1503 1505 1507 1508 1510 1512 1513 1515 1517 1518 1519 1520 1520 1520 1520 1519 1518 1517 1516 1514 1513 1511 1509 1508 1506 1504 1502 1500 1499
1488 1492 1497 1499 1494 1496 1500 1503 1506 1517 1512 1507 1518 1519 1500 1502 1504 1506 1508 1509 1510 1512 1514 1515 1517 1518 1519 1519 1519 1519 1518 1517 1516 1514 1513 1512 1511 1509 1507 1505 1503 1501 1499 1497
1488 1496 1502 1507 1507 1502 1502 1502 1504 1507 1511 1512 1515 1516 1500 1500 1502 1504 1506 1508 1509 1510 1512 1513 1515 1516 1517 1517 1518 1517 1516 1516 1515 1513 1512 1511 1510 1508 1506 1504 1502 1500 1498 1496
1494 1495 1500 1505 1501 1498 1501 1502 1503 1507 1515 1510 1503 1503 1499 1497 1500 1502 1504 1506 1507 1508 1510 1511 1512 1514 1515 1516 1516 1516 1515 1514 1513 1512 1511 1510 1508 1507 1505 1503 1500 1498 1496 1494
1495 1498 1491 1486 1486 1490 1493 1497 1501 1506 1505 1506 1500 1499 1497 1496 1499 1501 1503 1504 1505 1506 1508 1509 1510 1512 1512 1513 1514 1514 1514 1512 1512 1511 1510 1508 1507 1505 1503 1501 1499 1497 1495 1493
1493 1495 1492 1489 1484 1488 1492 1491 1493 1497 1498 1498 1498 1498 1492 1496 1498 1499 1500 1502 1503 1505 1506 1507 1508 1509 1510 1511 1511 1511 1511 1510 1510 1509 1508 1507 1505 1504 1502 1500 1497 1495 1493 1491
1490 1494 1496 1494 1483 1488 1496 1485 1486 1489 1490 1494 1498 1495 1493 1495 1497 1499 1500 1501 1502 1503 1504 1505 1506 1507 1508 1509 1510 1510 1510 1509 1509 1508 1507 1506 1504 1502 1500 1498 1496 1494 1492 1489
1485 1488 1491 1493 1489 1504 1481 1466 1471 1480 1484 1486 1488 1490 1492 1495 1497 1499 1500 1501 1502 1502 1503 1504 1505 1506 1506 1507 1508 1508 1507 1507 1506 1506 1505 1504 1502 1500 1498 1496 1495 1492 1490 1488
1482 1485 1490 1491 1493 1486 1475 1469 1471 1478 1483 1481 1485 1488 1490 1493 1495 1497 1499 1500 1501 1501 1502 1503 1503 1504 1505 1505 1506 1506 1506 1505 1505 1504 1503 1502 1501 1499 1497 1495 1493 1491 1489 1486
1483 1483 1488 1489 1495 1494 1469 1464 1469 1476 1484 1476 1481 1485 1488 1490 1494 1497 1498 1499 1499 1500 1501 1501 1502 1503 1503 1504 1504 1504 1504 1504 1503 1502 1501 1500 1498 1497 1495 1493 1491 1489 1487 1484
1489 1489 1491 1493 1491 1477 1467 1466 1471 1489 1482 1472 1478 1482 1486 1488 1492 1496 1496 1497 1498 1499 1500 1500 1501 1501 1502 1502 1502 1502 1502 1502 1501 1499 1498 1497 1495 1494 1492 1490 1488 1486 1484 1482
1481 1485 1486 1487 1492 1483 1467 1469 1473 1475 1471 1473 1477 1481 1485 1488 1491 1493 1495 1496 1497 1498 1498 1499 1499 1500 1500 1500 1500 1500 1499 1499 1497 1496 1494 1493 1492 1490 1489 1487 1485 1483 1481 1479
1464 1467 1467 1470 1472 1466 1466 1468 1470 1471 1473 1475 1478 1481 1484 1487 1490 1492 1494 1495 1496 1497 1497 1497 1498 1498 1498 1498 1497 1497 1496 1495 1494 1493 1491 1489 1487 1486 1484 1483 1481 1479 1477 1475
1452 1454 1458 1460 1461 1463 1465 1467 1469 1471 1473 1475 1478 1481 1483 1486 1488 1490 1492 1493 1494 1495 1495 1496 1496 1496 1496 1496 1495 1493 1492 1491 1490 1489 1487 1486 1484 1482 1480 1478 1477 1475 1473 1472
1450 1449 1454 1458 1458 1459 1462 1464 1467 1469 1472 1474 1477 1479 1482 1484 1486 1488 1490 1491 1493 1493 1494 1494 1494 1494 1494 1493 1492 1491 1489 1488 1486 1485 1483 1482 1480 1478 1476 1474 1473 1471 1469 1468
1449 1448 1453 1455 1453 1454 1456 1459 1463 1466 1468 1471 1474 1477 1479 1481 1483 1485 1487 1489 1490 1491 1492 1492 1492 1492 1492 1491 1489 1488 1486 1485 1483 1481 1479 1477 1475 1473 1471 1469 1467 1466 1465 1463